Regional Weather Roundup
Issued by NWS Portland, ME

Current Version | Previous Version | Text Only | Print | Product List | Glossary Off
Versions: 1 2 3 4 5 6 7 8 9 10 11 12 13 14 15 16 17 18 19 20 21 22 23 24 25 26 27 28 29 30 31 32 33 34 35 36 37 38 39 40 41 42 43 44 45 46 47 48 49 50
000 ASUS41 KGYX 160805 RWRGYX WEATHER ROUNDUP FOR MAINE AND NEW HAMPSHIRE NATIONAL WEATHER SERVICE GRAY ME 400 AM EDT WED AUG 16 2017 MEZ002-005-006-010-012-015-018-020-021-024-026-027-029-160900- MAINE CITY SKY/WX TMP DP RH WIND PRES REMARKS PORTLAND MOCLDY 68 64 87 W6 29.84S SANFORD PTCLDY 59 58 96 CALM 29.85S FOG BAR HARBOR CLOUDY 63 62 97 CALM 29.82R WISCASSET CLEAR 61 60 97 CALM 29.84S ROCKLAND PTCLDY 63 62 97 W6 29.82S FRYEBURG CLEAR 63 63 100 W3 29.86F LEWISTONAUBURN FOG 62 62 100 CALM 29.84S VSB 1 AUGUSTA CLEAR 65 63 93 NW6 29.84S WATERVILLE CLEAR 63 63 100 W5 29.81S FOG BANGOR MOCLDY 65 64 97 CALM 29.81F FOG GREENVILLE N/A 58 57 97 NW3 29.83S MILLINOCKET CLEAR 61 61 100 CALM 29.80S FOG HOULTON MOCLDY 64 64 100 CALM 29.77S PRESQUE ISLE FOG 61 61 100 W3 29.78R VSB 3/4 FRENCHVILLE CLOUDY 59 58 96 NW3 29.77R FOG CARIBOU CLOUDY 63 61 93 VRB3 29.76S $$ NHZ002-005-008-009-011-012-014-160900- NEW HAMPSHIRE CITY SKY/WX TMP DP RH WIND PRES REMARKS ROCHESTER CLEAR 65 60 84 CALM 29.85S NASHUA CLEAR 62 62 100 CALM 29.89S MANCHESTER PTCLDY 66 62 87 CALM 29.86S CONCORD CLEAR 62 61 96 CALM 29.88R LACONIA CLOUDY 64 63 96 CALM 29.89R PLYMOUTH MOCLDY 61 59 94 CALM 29.89S BERLIN CLOUDY 59 56 89 CALM 29.89S FOG WHITEFIELD CLOUDY 60 58 92 CALM 29.91S JAFFREY MOCLDY 65 65 100 CALM 29.92S KEENE N/A N/A N/A N/A MISG N/A LEBANON CLOUDY 64 63 96 CALM 29.90S FOG MT WASHINGTON DRZL/FOG 46 46 100 NW43G53 N/A VSB 0 $$ VTZ005-007-008-160900- VERMONT CITY SKY/WX TMP DP RH WIND PRES REMARKS ST JOHNSBURY N/A 59 59 100 MISG 29.89R MONTPELIER FOG 55 55 100 CALM 29.95S VSB 3/4 BURLINGTON FOG 62 62 100 CALM 29.91R VSB 1/4 $$ MAZ007-012-024-CTZ003-RIZ002-NYZ038-NYZ072-160900- SOUTHERN NEW ENGLAND AND NY CITY SKY/WX TMP DP RH WIND PRES REMARKS BOSTON PTCLDY 67 65 93 SW8 29.88R WORCESTER PTCLDY 65 63 93 W9 29.91F NANTUCKET CLOUDY 67 67 100 W5 29.89S PROVIDENCE PTCLDY 67 67 100 SW6 29.90F HARTFORD PTCLDY 63 63 100 NW6 29.90S FOG ALBANY PTCLDY 64 60 87 CALM 29.92S NEW YORK CITY MOCLDY 72 71 97 SW3 29.90F $$ ANZ081-ANZ082-ANZ150-NHZ014-MEZ023>029-160900- COASTAL MARINE OBSERVATIONS STATION/POSITION TIME TEMP WIND PRES WAVE AIR SEA DIR/SP/G HT/PER (UTC) (F) (DEG/KT/KT) (MB) (FT/S) MOUNT DESERT ROC 0800 61 1009.8R MATINICUS ROCK 0700 63 230/ 16/ 16 1009.5R ISLE OF SHOALS 0700 67 240/ 14/ 15 1010.5R JEFFREYS LEDGE 0706 68 N/A 3/ 7 CASHES LEDGE BUO 0650 69 68 1010.1 4/ 7 GEORGES BANK BUO 0650 67 62 1011.6 5/12 $$ .............KEY.............. WCI - WIND CHILL TC - TEMPERATURE IN CELSIUS VSB - VISIBILITY IN MILES HX - HEAT INDEX FAIR- INDICATES FEW OR NO CLOUDS BELOW 12,000 FT, WITH NO SIGNIFICANT WEATHER AND/OR OBSTRUCTIONS TO VISIBILITY.

USA.gov is the U.S. government's official web portal to all federal, state and local government web resources and services.